Time,TemperatureF,DewpointF,PressureIn,WindDirection,WindDirectionDegrees,WindSpeedMPH,WindSpeedGustMPH,Humidity,HourlyPrecipIn,Conditions,Clouds,dailyrainin,SolarRadiationWatts/m^2,SoftwareType,DateUTC
2013-06-12 00:02:00,66.7,61.0,30.06,West,267,3.0,-999.0,82,-99.99,,,0.00,0,weatherlink.com 1.10,2013-06-11 22:02:00,
2013-06-12 00:17:00,66.8,61.0,30.06,West,267,3.0,-999.0,82,-99.99,,,0.00,0,weatherlink.com 1.10,2013-06-11 22:17:00,
2013-06-12 00:32:00,66.9,61.0,30.06,West,267,0.0,-999.0,82,-99.99,,,0.00,0,weatherlink.com 1.10,2013-06-11 22:32:00,
2013-06-12 00:48:00,66.7,61.0,30.07,West,267,2.0,-999.0,81,-99.99,,,0.00,0,weatherlink.com 1.10,2013-06-11 22:48:00,
2013-06-12 01:03:00,66.2,60.0,30.07,West,267,0.0,-999.0,80,-99.99,,,0.00,0,weatherlink.com 1.10,2013-06-11 23:03:00,
2013-06-12 01:18:00,66.2,59.0,30.07,West,267,3.0,-999.0,78,-99.99,,,0.00,0,weatherlink.com 1.10,2013-06-11 23:18:00,
2013-06-12 01:33:00,66.1,58.0,30.07,West,267,0.0,-999.0,75,-99.99,,,0.00,0,weatherlink.com 1.10,2013-06-11 23:33:00,
2013-06-12 01:49:00,66.2,57.0,30.06,West,267,0.0,-999.0,72,-99.99,,,0.00,0,weatherlink.com 1.10,2013-06-11 23:49:00,
2013-06-12 02:04:00,66.4,56.0,30.06,West,267,0.0,-999.0,70,-99.99,,,0.00,0,weatherlink.com 1.10,2013-06-12 00:04:00,
2013-06-12 02:19:00,66.7,56.0,30.06,West,267,0.0,-999.0,69,-99.99,,,0.00,0,weatherlink.com 1.10,2013-06-12 00:19:00,
2013-06-12 02:34:00,66.7,56.0,30.06,West,267,0.0,-999.0,68,-99.99,,,0.00,0,weatherlink.com 1.10,2013-06-12 00:34:00,
2013-06-12 02:49:00,66.6,55.0,30.06,West,267,0.0,-999.0,67,-99.99,,,0.00,0,weatherlink.com 1.10,2013-06-12 00:49:00,
2013-06-12 03:04:00,66.8,55.0,30.06,West,267,0.0,-999.0,67,-99.99,,,0.00,0,weatherlink.com 1.10,2013-06-12 01:04:00,
2013-06-12 03:19:00,67.1,57.0,30.06,West,267,0.0,-999.0,69,-99.99,,,0.00,0,weatherlink.com 1.10,2013-06-12 01:19:00,
2013-06-12 03:35:00,67.7,59.0,30.06,West,267,0.0,-999.0,73,-99.99,,,0.00,0,weatherlink.com 1.10,2013-06-12 01:35:00,
2013-06-12 03:51:00,67.9,60.0,30.05,West,267,2.0,-999.0,76,-99.99,,,0.00,0,weatherlink.com 1.10,2013-06-12 01:51:00,
2013-06-12 04:05:00,67.9,60.0,30.05,West,267,0.0,-999.0,77,-99.99,,,0.00,0,weatherlink.com 1.10,2013-06-12 02:05:00,
2013-06-12 04:21:00,67.5,60.0,30.05,West,267,0.0,-999.0,77,-99.99,,,0.00,0,weatherlink.com 1.10,2013-06-12 02:21:00,
2013-06-12 04:36:00,66.6,59.0,30.05,West,267,0.0,-999.0,77,-99.99,,,0.00,0,weatherlink.com 1.10,2013-06-12 02:36:00,
2013-06-12 04:51:00,65.7,59.0,30.05,West,267,2.0,-999.0,78,-99.99,,,0.00,0,weatherlink.com 1.10,2013-06-12 02:51:00,
2013-06-12 05:06:00,65.2,59.0,30.05,West,267,0.0,-999.0,80,-99.99,,,0.00,0,weatherlink.com 1.10,2013-06-12 03:06:00,
2013-06-12 05:22:00,64.9,59.0,30.05,West,267,0.0,-999.0,81,-99.99,,,0.00,0,weatherlink.com 1.10,2013-06-12 03:22:00,
2013-06-12 05:36:00,64.6,59.0,30.06,West,267,0.0,-999.0,82,-99.99,,,0.00,0,weatherlink.com 1.10,2013-06-12 03:36:00,
2013-06-12 05:52:00,64.3,59.0,30.06,West,267,0.0,-999.0,82,-99.99,,,0.00,0,weatherlink.com 1.10,2013-06-12 03:52:00,
2013-06-12 06:07:00,63.7,58.0,30.07,West,267,0.0,-999.0,81,-99.99,,,0.00,0,weatherlink.com 1.10,2013-06-12 04:07:00,
2013-06-12 06:22:00,63.1,57.0,30.07,West,267,0.0,-999.0,81,-99.99,,,0.00,0,weatherlink.com 1.10,2013-06-12 04:22:00,
2013-06-12 06:37:00,63.0,57.0,30.07,West,267,0.0,-999.0,80,-99.99,,,0.00,9,weatherlink.com 1.10,2013-06-12 04:37:00,
2013-06-12 06:52:00,63.0,57.0,30.07,West,267,0.0,-999.0,80,-99.99,,,0.00,16,weatherlink.com 1.10,2013-06-12 04:52:00,
2013-06-12 07:08:00,63.1,57.0,30.07,West,267,0.0,-999.0,80,-99.99,,,0.00,21,weatherlink.com 1.10,2013-06-12 05:08:00,
2013-06-12 07:23:00,63.5,57.0,30.08,West,267,0.0,-999.0,80,-99.99,,,0.00,25,weatherlink.com 1.10,2013-06-12 05:23:00,
2013-06-12 07:38:00,63.9,58.0,30.08,West,267,0.0,-999.0,80,-99.99,,,0.00,28,weatherlink.com 1.10,2013-06-12 05:38:00,
2013-06-12 07:54:00,64.5,58.0,30.09,West,267,0.0,-999.0,80,-99.99,,,0.00,32,weatherlink.com 1.10,2013-06-12 05:54:00,
2013-06-12 08:09:00,65.7,59.0,30.09,WSW,257,0.0,-999.0,80,-99.99,,,0.00,33,weatherlink.com 1.10,2013-06-12 06:09:00,
2013-06-12 08:24:00,66.6,60.0,30.09,WSW,252,0.0,-999.0,78,-99.99,,,0.00,37,weatherlink.com 1.10,2013-06-12 06:24:00,
2013-06-12 08:39:00,67.2,60.0,30.10,WSW,245,2.0,-999.0,77,-99.99,,,0.00,39,weatherlink.com 1.10,2013-06-12 06:39:00,
2013-06-12 08:54:00,68.5,60.0,30.10,SSE,167,3.0,-999.0,74,-99.99,,,0.00,40,weatherlink.com 1.10,2013-06-12 06:54:00,
2013-06-12 09:09:00,69.3,60.0,30.10,SE,135,0.0,-999.0,73,-99.99,,,0.00,42,weatherlink.com 1.10,2013-06-12 07:09:00,
2013-06-12 09:24:00,70.4,61.0,30.10,SSE,165,4.0,-999.0,72,-99.99,,,0.00,46,weatherlink.com 1.10,2013-06-12 07:24:00,
2013-06-12 09:40:00,71.8,61.0,30.10,SSE,150,0.0,-999.0,69,-99.99,,,0.00,49,weatherlink.com 1.10,2013-06-12 07:40:00,
2013-06-12 09:56:00,73.2,61.0,30.10,SSE,165,2.0,-999.0,65,-99.99,,,0.00,54,weatherlink.com 1.10,2013-06-12 07:56:00,
2013-06-12 10:10:00,75.6,61.0,30.10,SE,140,1.0,-999.0,60,-99.99,,,0.00,591,weatherlink.com 1.10,2013-06-12 08:10:00,
2013-06-12 10:25:00,77.1,60.0,30.11,SSE,162,1.0,-999.0,55,-99.99,,,0.00,635,weatherlink.com 1.10,2013-06-12 08:25:00,
2013-06-12 10:41:00,77.5,59.0,30.10,ESE,110,4.0,-999.0,54,-99.99,,,0.00,677,weatherlink.com 1.10,2013-06-12 08:41:00,
2013-06-12 10:57:00,78.7,60.0,30.11,SE,136,6.0,-999.0,53,-99.99,,,0.00,717,weatherlink.com 1.10,2013-06-12 08:57:00,
2013-06-12 11:12:00,77.7,60.0,30.11,South,184,3.0,-999.0,54,-99.99,,,0.00,744,weatherlink.com 1.10,2013-06-12 09:12:00,
2013-06-12 11:27:00,78.4,61.0,30.11,South,175,7.0,-999.0,55,-99.99,,,0.00,775,weatherlink.com 1.10,2013-06-12 09:27:00,
2013-06-12 11:43:00,76.3,61.0,30.12,SSE,166,9.0,-999.0,60,-99.99,,,0.00,809,weatherlink.com 1.10,2013-06-12 09:43:00,
2013-06-12 11:57:00,75.9,61.0,30.12,South,171,5.0,-999.0,61,-99.99,,,0.00,831,weatherlink.com 1.10,2013-06-12 09:57:00,
2013-06-12 12:13:00,76.4,62.0,30.12,South,187,4.0,-999.0,62,-99.99,,,0.00,856,weatherlink.com 1.10,2013-06-12 10:13:00,
2013-06-12 12:27:00,77.2,63.0,30.12,South,191,5.0,-999.0,62,-99.99,,,0.00,877,weatherlink.com 1.10,2013-06-12 10:27:00,
2013-06-12 12:43:00,77.2,62.0,30.12,South,189,4.0,-999.0,60,-99.99,,,0.00,893,weatherlink.com 1.10,2013-06-12 10:43:00,
2013-06-12 12:59:00,76.4,61.0,30.12,SSE,153,8.0,-999.0,60,-99.99,,,0.00,905,weatherlink.com 1.10,2013-06-12 10:59:00,
2013-06-12 13:28:00,76.6,63.0,30.12,SSW,198,12.0,-999.0,62,-99.99,,,0.00,923,weatherlink.com 1.10,2013-06-12 11:28:00,
2013-06-12 13:44:00,76.5,61.0,30.12,SSW,204,11.0,-999.0,59,-99.99,,,0.00,926,weatherlink.com 1.10,2013-06-12 11:44:00,
2013-06-12 13:59:00,77.1,59.0,30.12,SSE,158,9.0,-999.0,53,-99.99,,,0.00,926,weatherlink.com 1.10,2013-06-12 11:59:00,
2013-06-12 14:14:00,77.9,59.0,30.11,SSE,161,7.0,-999.0,52,-99.99,,,0.00,921,weatherlink.com 1.10,2013-06-12 12:14:00,
2013-06-12 14:29:00,78.7,59.0,30.11,South,175,9.0,-999.0,51,-99.99,,,0.00,914,weatherlink.com 1.10,2013-06-12 12:29:00,
2013-06-12 14:45:00,77.7,60.0,30.11,SSW,193,9.0,-999.0,54,-99.99,,,0.00,905,weatherlink.com 1.10,2013-06-12 12:45:00,
2013-06-12 15:00:00,77.6,58.0,30.11,SSE,161,7.0,-999.0,52,-99.99,,,0.00,895,weatherlink.com 1.10,2013-06-12 13:00:00,
2013-06-12 15:15:00,77.6,60.0,30.11,SSE,167,14.0,-999.0,54,-99.99,,,0.00,879,weatherlink.com 1.10,2013-06-12 13:15:00,
2013-06-12 15:31:00,77.0,60.0,30.11,South,176,6.0,-999.0,56,-99.99,,,0.00,853,weatherlink.com 1.10,2013-06-12 13:31:00,
2013-06-12 15:46:00,76.6,61.0,30.12,South,179,7.0,-999.0,58,-99.99,,,0.00,831,weatherlink.com 1.10,2013-06-12 13:46:00,
2013-06-12 16:00:00,76.6,59.0,30.11,SSE,157,9.0,-999.0,54,-99.99,,,0.00,807,weatherlink.com 1.10,2013-06-12 14:00:00,
2013-06-12 16:15:00,77.1,58.0,30.11,SSE,162,11.0,-999.0,52,-99.99,,,0.00,780,weatherlink.com 1.10,2013-06-12 14:15:00,
2013-06-12 16:31:00,76.8,58.0,30.10,SSW,204,8.0,-999.0,52,-99.99,,,0.00,745,weatherlink.com 1.10,2013-06-12 14:31:00,
2013-06-12 16:46:00,77.3,57.0,30.10,SSE,150,10.0,-999.0,50,-99.99,,,0.00,714,weatherlink.com 1.10,2013-06-12 14:46:00,
2013-06-12 17:02:00,77.8,57.0,30.09,SSW,197,11.0,-999.0,49,-99.99,,,0.00,675,weatherlink.com 1.10,2013-06-12 15:02:00,
2013-06-12 17:17:00,77.1,56.0,30.09,SE,144,6.0,-999.0,49,-99.99,,,0.00,640,weatherlink.com 1.10,2013-06-12 15:17:00,
2013-06-12 17:32:00,77.7,56.0,30.09,South,188,8.0,-999.0,48,-99.99,,,0.00,599,weatherlink.com 1.10,2013-06-12 15:32:00,
2013-06-12 17:47:00,76.9,54.0,30.08,South,183,4.0,-999.0,46,-99.99,,,0.00,563,weatherlink.com 1.10,2013-06-12 15:47:00,
2013-06-12 18:02:00,76.6,55.0,30.08,South,190,6.0,-999.0,47,-99.99,,,0.00,517,weatherlink.com 1.10,2013-06-12 16:02:00,
2013-06-12 18:18:00,77.1,55.0,30.08,South,191,9.0,-999.0,46,-99.99,,,0.00,469,weatherlink.com 1.10,2013-06-12 16:18:00,
2013-06-12 18:33:00,77.3,52.0,30.08,South,186,3.0,-999.0,42,-99.99,,,0.00,427,weatherlink.com 1.10,2013-06-12 16:33:00,
2013-06-12 18:47:00,77.1,51.0,30.07,South,174,0.0,-999.0,40,-99.99,,,0.00,383,weatherlink.com 1.10,2013-06-12 16:47:00,
2013-06-12 19:03:00,77.6,50.0,30.07,South,175,1.0,-999.0,38,-99.99,,,0.00,334,weatherlink.com 1.10,2013-06-12 17:03:00,
2013-06-12 19:18:00,77.0,48.0,30.07,SSE,167,4.0,-999.0,36,-99.99,,,0.00,290,weatherlink.com 1.10,2013-06-12 17:18:00,
2013-06-12 19:34:00,77.4,48.0,30.07,South,171,1.0,-999.0,36,-99.99,,,0.00,243,weatherlink.com 1.10,2013-06-12 17:34:00,
2013-06-12 19:49:00,77.0,48.0,30.07,South,173,4.0,-999.0,36,-99.99,,,0.00,199,weatherlink.com 1.10,2013-06-12 17:49:00,
2013-06-12 20:03:00,76.5,47.0,30.07,South,174,3.0,-999.0,35,-99.99,,,0.00,156,weatherlink.com 1.10,2013-06-12 18:03:00,
2013-06-12 20:19:00,75.9,46.0,30.06,South,174,1.0,-999.0,35,-99.99,,,0.00,105,weatherlink.com 1.10,2013-06-12 18:19:00,
2013-06-12 20:34:00,75.5,46.0,30.06,South,174,1.0,-999.0,35,-99.99,,,0.00,62,weatherlink.com 1.10,2013-06-12 18:34:00,
2013-06-12 20:50:00,75.3,46.0,30.06,South,174,0.0,-999.0,35,-99.99,,,0.00,28,weatherlink.com 1.10,2013-06-12 18:50:00,
2013-06-12 21:05:00,74.8,45.0,30.06,South,174,1.0,-999.0,35,-99.99,,,0.00,9,weatherlink.com 1.10,2013-06-12 19:05:00,
2013-06-12 21:19:00,74.3,46.0,30.07,South,175,1.0,-999.0,36,-99.99,,,0.00,0,weatherlink.com 1.10,2013-06-12 19:19:00,
2013-06-12 21:35:00,73.1,46.0,30.07,South,175,0.0,-999.0,38,-99.99,,,0.00,0,weatherlink.com 1.10,2013-06-12 19:35:00,
2013-06-12 21:50:00,72.3,46.0,30.07,South,175,1.0,-999.0,39,-99.99,,,0.00,0,weatherlink.com 1.10,2013-06-12 19:50:00,
2013-06-12 22:06:00,71.8,49.0,30.07,South,175,0.0,-999.0,44,-99.99,,,0.00,0,weatherlink.com 1.10,2013-06-12 20:06:00,
2013-06-12 22:20:00,71.4,51.0,30.07,South,175,0.0,-999.0,48,-99.99,,,0.00,0,weatherlink.com 1.10,2013-06-12 20:20:00,
2013-06-12 22:35:00,70.9,51.0,30.07,South,175,0.0,-999.0,50,-99.99,,,0.00,0,weatherlink.com 1.10,2013-06-12 20:35:00,
2013-06-12 22:51:00,70.6,52.0,30.08,South,175,0.0,-999.0,53,-99.99,,,0.00,0,weatherlink.com 1.10,2013-06-12 20:51:00,
2013-06-12 23:06:00,70.4,53.0,30.08,South,175,0.0,-999.0,55,-99.99,,,0.00,0,weatherlink.com 1.10,2013-06-12 21:06:00,
2013-06-12 23:22:00,70.1,54.0,30.08,South,175,0.0,-999.0,58,-99.99,,,0.00,0,weatherlink.com 1.10,2013-06-12 21:22:00,
2013-06-12 23:36:00,69.7,54.0,30.08,South,175,0.0,-999.0,57,-99.99,,,0.00,0,weatherlink.com 1.10,2013-06-12 21:36:00,
2013-06-12 23:51:00,69.3,52.0,30.08,South,175,0.0,-999.0,55,-99.99,,,0.00,0,weatherlink.com 1.10,2013-06-12 21:51:00,